Simultaneous Nadir Overpasses (SNOs) Predictions

Prediction of SNOs between AQUA and NOAA-19 Satellite Orbit:

Table of predicted SNOs for the next 14.0 days since TLE Epoch: 4/29/2023
Index Date (AQUA) Time (AQUA) Lat,Lon (AQUA) SZA (AQUA ) Date (NOAA-19) Time (NOAA-19) Lat,Lon (NOAA-19) SZA (NOAA-19 ) Distance(km) Time Diff (sec)
1 04/29/2023 21:37:19 76.53,-154.63 62.07 04/29/2023 21:36:06 76.51,-154.91 62.07 7.61 73
2 04/29/2023 22:26:45 -76.62, 12.73 117.86 04/29/2023 22:27:09 -76.63, 12.78 117.85 1.73 24
3 05/02/2023 03:09:06 -76.56, -57.66 118.59 05/02/2023 03:08:44 -76.57, -57.79 118.57 3.51 22
4 05/02/2023 03:58:33 76.65, 109.69 61.51 05/02/2023 03:59:36 76.63, 109.74 61.47 2.89 63
5 05/04/2023 07:51:27 -76.54,-128.16 119.26 05/04/2023 07:50:18 -76.54,-128.22 119.25 1.70 69
6 05/04/2023 08:40:53 76.59, 39.35 60.78 05/04/2023 08:41:10 76.60, 39.30 60.80 1.85 17
7 05/06/2023 13:23:13 76.55, -31.11 60.12 05/06/2023 13:22:44 76.57, -31.15 60.14 1.75 29
8 05/06/2023 14:12:39 -76.63, 136.27 119.81 05/06/2023 14:13:48 -76.64, 136.38 119.81 3.08 69
9 05/08/2023 18:05:32 76.51,-101.51 59.46 05/08/2023 18:04:19 76.48,-101.80 59.46 8.07 73
10 05/08/2023 18:54:58 -76.59, 65.87 120.47 05/08/2023 18:55:22 -76.60, 65.89 120.46 1.61 24
11 05/10/2023 23:37:17 -76.57, -4.64 121.06 05/10/2023 23:36:56 -76.55, -4.64 121.08 2.45 21



Historial Predications of SNOs between AQUA and NOAA-19
